Weather Roundup
Issued by NWS Springfield, MO

Home | Current Version | Previous Version | Text Only | Print | Product List | Glossary On
Versions: 1 2 3 4 5 6 7 8 9 10 11 12 13 14 15 16 17 18 19 20 21 22 23 24 25 26 27 28 29 30 31 32 33 34 35 36 37 38 39 40 41 42 43 44 45 46 47 48 49 50
000
NZUS99 KSGF 262257
HRRSGF

HOURLY WEATHER
NATIONAL WEATHER SERVICE SPRINGFIELD MO
600 PM CDT FRI MAY 26 2017

......SGF CWA......

CITY           SKY/WX    TMP DP  RH WIND       PRES   REMARKS
SPRINGFIELD    PTSUNNY   82  69  64 W5        29.78R
WEST PLAINS    CLOUDY    76  67  73 S7        29.82R
ROLLA          CLOUDY    76  68  76 W6        29.78R
BRANSON        PTSUNNY   81  68  65 S6        29.80S

......SURROUNDING SGF CWA......

CITY           SKY/WX    TMP DP  RH WIND       PRES   REMARKS
CHANUTE        SUNNY     85  64  49 NE5       29.77R
PARSONS        MOSUNNY   86  65  49 CALM      29.77S
COFFEYVILLE    MOSUNNY   83  69  62 N5        29.75S
EMPORIA        MOSUNNY   83  64  52 N5        29.78R
HARRISON AR    CLOUDY    82  68  62 S5        29.80S

......KANSAS AND MISSOURI......

CITY           SKY/WX    TMP DP  RH WIND       PRES   REMARKS
KANSAS CTY INT MOSUNNY   83  64  52 N7        29.77S
SEDALIA        MOSUNNY   83  69  62 N7        29.79R
ST JOSEPH      SUNNY     84  63  49 NE6       29.76S
ST LOUIS       CLOUDY    81  66  60 SW12      29.76R
WICHITA        MOSUNNY   86  62  44 NE9       29.78S
TOPEKA         SUNNY     83  65  54 N5        29.77R
OLATHE         SUNNY     82  63  52 NW3       29.77S

......TENNESSEE......

CITY           SKY/WX    TMP DP  RH WIND       PRES   REMARKS
MEMPHIS        NOT AVBL
NASHVILLE      MOSUNNY   85  56  37 SW13G22   29.86F

......ARKANSAS.......

CITY           SKY/WX    TMP DP  RH WIND       PRES   REMARKS
FAYETTEVILLE   MOSUNNY   82  71  69 S13       29.78R
FT SMITH       SUNNY     88  70  55 S9        29.74S HX  93
LITTLE ROCK    CLOUDY    81  73  76 S8        29.82F

......OKLAHOMA.......

CITY           SKY/WX    TMP DP  RH WIND       PRES   REMARKS
TULSA          PTSUNNY   89  72  56 N7        29.72R HX  96
PONCA CITY     SUNNY     87  62  43 NE9       29.75S
MCALESTER      CLOUDY    90  75  61 S6        29.73F HX 100
OKLAHOMA CITY  MOSUNNY   87  65  47 VRB3      29.75S

......IOWA............

CITY           SKY/WX    TMP DP  RH WIND       PRES   REMARKS
DES MOINES     NOT AVBL
QUAD CITIES    CLOUDY    69  61  75 NE8       29.77R

......ILLINOIS........

CITY           SKY/WX    TMP DP  RH WIND       PRES   REMARKS
QUINCY         NOT AVBL
CHICAGO        RAIN      56  53  90 NE10      29.81R FOG



USA.gov is the U.S. government's official web portal to all federal, state and local government web resources and services.